Tracking 28790 objects as of 19-Apr-2024
HD Live streaming from Space Station
objects crossing your sky now

DELTA 1 DEB

Track DELTA 1 DEB now!
10-day predictions


NORAD ID: 7958
Int'l Code: 1972-058CN
Perigee: 681.5 km
Apogee: 1,123.9 km
Inclination: 97.7 °
Period: 102.9 minutes
Semi major axis: 7273 km
RCS: 0.1345 m2 (medium)
Launch date: July 23, 1972
Source: United States (US)
Launch site: AIR FORCE WESTERN TEST RANGE (AFWTR)

Note: This is SATELLITE DEBRIS
Your satellite tracking list
Your tracking list is empty




NASA's NSSDC Master Catalog

Two Line Element Set (TLE):
1 07958U 72058CN  24109.80739940  .00002877  00000-0  13415-2 0  9997
2 07958  97.6943  64.0590 0304080 234.0661 123.1944 13.99485464595680
Source of the keplerian elements: AFSPC